Time,TemperatureF,DewpointF,PressureIn,WindDirection,WindDirectionDegrees,WindSpeedMPH,WindSpeedGustMPH,Humidity,HourlyPrecipIn,Conditions,Clouds,dailyrainin,SoftwareType,DateUTC
2013-09-09 00:01:00,48.8,47.7,30.08,SW,214,0.0,0.0,96,0.00,RA,,0.00,WeatherDisplay:10.37,2013-09-09 04:01:00,
2013-09-09 00:02:00,48.8,47.7,30.08,SW,214,0.0,0.0,96,0.00,RA,,0.00,WeatherDisplay:10.37,2013-09-09 04:02:00,
2013-09-09 00:07:00,48.5,47.1,30.08,SW,214,0.0,0.0,95,0.00,RA,,0.00,WeatherDisplay:10.37,2013-09-09 04:07:00,
2013-09-09 00:12:00,48.5,47.4,30.09,SW,214,0.0,0.0,96,0.00,SCT,,0.00,WeatherDisplay:10.37,2013-09-09 04:12:00,
2013-09-09 00:17:00,48.4,47.3,30.09,SW,214,0.0,0.0,96,0.00,SCT,,0.00,WeatherDisplay:10.37,2013-09-09 04:17:00,
2013-09-09 00:22:00,48.3,47.2,30.09,SSW,213,0.0,0.0,96,0.00,SCT,,0.00,WeatherDisplay:10.37,2013-09-09 04:22:00,
2013-09-09 00:27:00,48.2,47.1,30.09,SSW,212,0.0,0.0,96,0.00,SCT,,0.00,WeatherDisplay:10.37,2013-09-09 04:27:00,
2013-09-09 00:32:00,48.1,47.0,30.09,SW,214,0.0,0.0,96,0.00,SCT,,0.00,WeatherDisplay:10.37,2013-09-09 04:32:00,
2013-09-09 00:37:00,48.1,47.0,30.09,SW,214,0.0,0.0,96,0.00,SCT,,0.00,WeatherDisplay:10.37,2013-09-09 04:37:00,
2013-09-09 00:42:00,48.1,47.0,30.09,SSW,212,0.0,0.0,96,0.00,SCT,,0.00,WeatherDisplay:10.37,2013-09-09 04:42:00,
2013-09-09 00:47:00,48.1,47.0,30.09,SW,214,0.0,0.0,96,0.00,SCT,,0.00,WeatherDisplay:10.37,2013-09-09 04:47:00,
2013-09-09 00:52:00,47.9,46.8,30.09,SW,214,0.0,0.0,96,0.00,SCT,,0.00,WeatherDisplay:10.37,2013-09-09 04:52:00,
2013-09-09 00:57:00,47.9,46.8,30.09,SW,214,0.0,0.0,96,0.00,SCT,,0.00,WeatherDisplay:10.37,2013-09-09 04:57:00,
2013-09-09 01:02:00,47.8,46.7,30.09,South,190,0.0,0.0,96,0.00,BKN,,0.00,WeatherDisplay:10.37,2013-09-09 05:02:00,
2013-09-09 01:08:00,47.5,46.4,30.09,South,190,0.0,0.0,96,0.00,BKN,,0.00,WeatherDisplay:10.37,2013-09-09 05:08:00,
2013-09-09 01:13:00,47.4,46.3,30.10,South,190,0.0,0.0,96,0.00,BKN,,0.00,WeatherDisplay:10.37,2013-09-09 05:13:00,
2013-09-09 01:18:00,47.3,46.2,30.10,South,190,0.0,0.0,96,0.00,BKN,,0.00,WeatherDisplay:10.37,2013-09-09 05:18:00,
2013-09-09 01:23:00,47.1,46.0,30.10,South,190,0.0,0.0,96,0.00,BKN,,0.00,WeatherDisplay:10.37,2013-09-09 05:23:00,
2013-09-09 01:29:00,47.0,45.9,30.10,South,190,0.0,0.0,96,0.00,BKN,,0.00,WeatherDisplay:10.37,2013-09-09 05:29:00,
2013-09-09 01:34:00,46.9,45.8,30.10,South,190,0.0,0.0,96,0.00,BKN,,0.00,WeatherDisplay:10.37,2013-09-09 05:34:00,
2013-09-09 01:39:00,46.9,45.8,30.10,South,190,0.0,0.0,96,0.00,BKN,,0.00,WeatherDisplay:10.37,2013-09-09 05:39:00,
2013-09-09 01:45:00,46.8,45.7,30.10,South,190,0.0,0.0,96,0.00,BKN,,0.00,WeatherDisplay:10.37,2013-09-09 05:45:00,
2013-09-09 01:50:00,46.9,45.8,30.10,South,191,0.0,0.0,96,0.00,BKN,,0.00,WeatherDisplay:10.37,2013-09-09 05:50:00,
2013-09-09 01:55:00,46.9,45.8,30.10,South,190,0.0,0.0,96,0.00,BKN,,0.00,WeatherDisplay:10.37,2013-09-09 05:55:00,
2013-09-09 02:01:00,46.8,45.7,30.10,South,190,0.0,0.0,96,0.00,BKN,,0.00,WeatherDisplay:10.37,2013-09-09 06:01:00,
2013-09-09 02:06:00,46.7,45.6,30.09,South,190,0.0,0.0,96,0.00,BKN,,0.00,WeatherDisplay:10.37,2013-09-09 06:06:00,
2013-09-09 02:11:00,46.5,45.4,30.10,South,190,0.0,0.0,96,0.00,BKN,,0.00,WeatherDisplay:10.37,2013-09-09 06:11:00,
2013-09-09 02:16:00,46.3,45.2,30.10,South,190,0.0,0.0,96,0.00,BKN,,0.00,WeatherDisplay:10.37,2013-09-09 06:16:00,
2013-09-09 02:22:00,46.2,45.1,30.10,South,190,0.0,0.0,96,0.00,BKN,,0.00,WeatherDisplay:10.37,2013-09-09 06:22:00,
2013-09-09 02:27:00,46.3,45.2,30.10,South,190,0.0,0.0,96,0.00,BKN,,0.00,WeatherDisplay:10.37,2013-09-09 06:27:00,
2013-09-09 02:33:00,46.3,45.2,30.10,South,190,0.0,0.0,96,0.00,BKN,,0.00,WeatherDisplay:10.37,2013-09-09 06:33:00,
2013-09-09 02:38:00,46.3,45.2,30.10,South,190,0.0,0.0,96,0.00,BKN,,0.00,WeatherDisplay:10.37,2013-09-09 06:38:00,
2013-09-09 02:44:00,46.3,45.2,30.10,South,190,0.0,0.0,96,0.00,BKN,,0.00,WeatherDisplay:10.37,2013-09-09 06:44:00,
2013-09-09 02:49:00,46.1,45.0,30.10,South,190,0.0,0.0,96,0.00,BKN,,0.00,WeatherDisplay:10.37,2013-09-09 06:49:00,
2013-09-09 02:54:00,45.9,44.8,30.10,South,190,0.0,0.0,96,0.00,BKN,,0.00,WeatherDisplay:10.37,2013-09-09 06:54:00,
2013-09-09 02:59:00,45.8,44.7,30.10,South,190,0.0,0.0,96,0.00,BKN,,0.00,WeatherDisplay:10.37,2013-09-09 06:59:00,
2013-09-09 03:04:00,45.8,44.7,30.10,South,190,0.0,0.0,96,0.00,BKN,,0.00,WeatherDisplay:10.37,2013-09-09 07:04:00,
2013-09-09 03:09:00,45.7,44.6,30.10,South,190,0.0,0.0,96,0.00,BKN,,0.00,WeatherDisplay:10.37,2013-09-09 07:09:00,
2013-09-09 03:14:00,45.7,44.6,30.10,South,190,0.0,0.0,96,0.00,BKN,,0.00,WeatherDisplay:10.37,2013-09-09 07:14:00,
2013-09-09 03:19:00,45.7,44.6,30.10,South,190,0.0,0.0,96,0.00,BKN,,0.00,WeatherDisplay:10.37,2013-09-09 07:19:00,
2013-09-09 03:24:00,45.7,44.9,30.10,South,190,0.0,0.0,97,0.00,BKN,,0.00,WeatherDisplay:10.37,2013-09-09 07:24:00,
2013-09-09 03:29:00,45.8,45.0,30.10,South,190,0.0,0.0,97,0.00,BKN,,0.00,WeatherDisplay:10.37,2013-09-09 07:29:00,
2013-09-09 03:34:00,45.7,44.9,30.10,South,190,0.0,0.0,97,0.00,BKN,,0.00,WeatherDisplay:10.37,2013-09-09 07:34:00,
2013-09-09 03:39:00,45.7,44.9,30.10,South,190,0.0,0.0,97,0.00,BKN,,0.00,WeatherDisplay:10.37,2013-09-09 07:39:00,
2013-09-09 03:44:00,45.9,45.1,30.10,South,191,0.0,0.0,97,0.00,BKN,,0.00,WeatherDisplay:10.37,2013-09-09 07:44:00,
2013-09-09 03:49:00,45.8,45.0,30.10,South,190,0.0,0.0,97,0.00,BKN,,0.00,WeatherDisplay:10.37,2013-09-09 07:49:00,
2013-09-09 03:54:00,45.6,44.8,30.10,South,190,0.0,0.0,97,0.00,BKN,,0.00,WeatherDisplay:10.37,2013-09-09 07:54:00,
2013-09-09 03:59:00,45.4,44.6,30.10,South,190,0.0,0.0,97,0.00,BKN,,0.00,WeatherDisplay:10.37,2013-09-09 07:59:00,
2013-09-09 04:04:00,45.2,44.4,30.10,South,190,0.0,0.0,97,0.00,BKN,,0.00,WeatherDisplay:10.37,2013-09-09 08:04:00,
2013-09-09 04:09:00,45.2,44.4,30.10,South,190,0.0,0.0,97,0.00,BKN,,0.00,WeatherDisplay:10.37,2013-09-09 08:09:00,
2013-09-09 04:14:00,45.1,44.3,30.10,South,190,0.0,0.0,97,0.00,BKN,,0.00,WeatherDisplay:10.37,2013-09-09 08:14:00,
2013-09-09 04:19:00,45.1,44.3,30.11,South,190,0.0,0.0,97,0.00,BKN,,0.00,WeatherDisplay:10.37,2013-09-09 08:19:00,
2013-09-09 04:24:00,45.1,44.3,30.10,South,190,0.0,0.0,97,0.00,BKN,,0.00,WeatherDisplay:10.37,2013-09-09 08:24:00,
2013-09-09 04:30:00,45.0,44.2,30.11,South,190,0.0,0.0,97,0.00,BKN,,0.00,WeatherDisplay:10.37,2013-09-09 08:30:00,
2013-09-09 04:35:00,44.9,44.1,30.11,South,190,0.0,0.0,97,0.00,BKN,,0.00,WeatherDisplay:10.37,2013-09-09 08:35:00,
2013-09-09 04:40:00,44.8,44.0,30.10,South,190,0.0,0.0,97,0.00,BKN,,0.00,WeatherDisplay:10.37,2013-09-09 08:40:00,
2013-09-09 04:45:00,44.9,44.1,30.10,South,190,0.0,0.0,97,0.00,BKN,,0.00,WeatherDisplay:10.37,2013-09-09 08:45:00,
2013-09-09 04:50:00,45.0,44.2,30.10,South,190,0.0,0.0,97,0.00,BKN,,0.00,WeatherDisplay:10.37,2013-09-09 08:50:00,
2013-09-09 04:55:00,45.1,44.3,30.10,South,190,0.0,0.0,97,0.00,BKN,,0.00,WeatherDisplay:10.37,2013-09-09 08:55:00,
2013-09-09 05:00:00,45.1,44.3,30.10,South,191,0.0,0.0,97,0.00,BKN,,0.00,WeatherDisplay:10.37,2013-09-09 09:00:00,
2013-09-09 05:05:00,45.2,44.4,30.10,South,190,0.0,0.0,97,0.00,BKN,,0.00,WeatherDisplay:10.37,2013-09-09 09:05:00,
2013-09-09 05:10:00,45.0,44.2,30.10,South,190,0.0,0.0,97,0.00,BKN,,0.00,WeatherDisplay:10.37,2013-09-09 09:10:00,
2013-09-09 05:15:00,44.7,43.9,30.10,South,190,0.0,0.0,97,0.00,BKN,,0.00,WeatherDisplay:10.37,2013-09-09 09:15:00,
2013-09-09 05:20:00,44.7,43.9,30.11,South,190,0.0,0.0,97,0.00,BKN,,0.00,WeatherDisplay:10.37,2013-09-09 09:20:00,
2013-09-09 05:25:00,44.8,44.0,30.11,South,191,0.0,0.0,97,0.00,BKN,,0.00,WeatherDisplay:10.37,2013-09-09 09:25:00,
2013-09-09 05:30:00,44.9,44.1,30.10,South,190,0.0,0.0,97,0.00,BKN,,0.00,WeatherDisplay:10.37,2013-09-09 09:30:00,
2013-09-09 05:35:00,44.8,44.0,30.11,South,190,0.0,0.0,97,0.00,BKN,,0.00,WeatherDisplay:10.37,2013-09-09 09:35:00,
2013-09-09 05:40:00,44.7,43.9,30.10,South,190,0.0,0.0,97,0.00,BKN,,0.00,WeatherDisplay:10.37,2013-09-09 09:40:00,
2013-09-09 05:45:00,44.4,43.6,30.10,South,190,0.0,0.0,97,0.00,BKN,,0.00,WeatherDisplay:10.37,2013-09-09 09:45:00,
2013-09-09 05:50:00,44.3,43.5,30.10,South,190,0.0,0.0,97,0.00,BKN,,0.00,WeatherDisplay:10.37,2013-09-09 09:50:00,
2013-09-09 05:55:00,44.1,43.3,30.10,South,190,0.0,0.0,97,0.00,BKN,,0.00,WeatherDisplay:10.37,2013-09-09 09:55:00,
2013-09-09 06:00:00,44.0,43.2,30.10,South,190,0.0,0.0,97,0.00,BKN,,0.00,WeatherDisplay:10.37,2013-09-09 10:00:00,
2013-09-09 06:05:00,43.9,43.1,30.10,South,191,0.0,0.0,97,0.00,BKN,,0.00,WeatherDisplay:10.37,2013-09-09 10:05:00,
2013-09-09 06:10:00,43.8,43.0,30.10,South,190,0.0,0.0,97,0.00,BKN,,0.00,WeatherDisplay:10.37,2013-09-09 10:10:00,
2013-09-09 06:15:00,43.8,43.0,30.10,South,190,0.0,0.0,97,0.00,BKN,,0.00,WeatherDisplay:10.37,2013-09-09 10:15:00,
2013-09-09 06:20:00,43.8,43.0,30.10,South,190,0.0,0.0,97,0.00,BKN,,0.00,WeatherDisplay:10.37,2013-09-09 10:20:00,
2013-09-09 06:25:00,43.9,43.1,30.11,South,190,0.0,0.0,97,0.00,BKN,,0.00,WeatherDisplay:10.37,2013-09-09 10:25:00,
2013-09-09 06:30:00,43.9,43.1,30.11,South,190,0.0,0.0,97,0.00,BKN,,0.00,WeatherDisplay:10.37,2013-09-09 10:30:00,
2013-09-09 06:35:00,44.1,43.3,30.11,South,190,0.0,0.0,97,0.00,BKN,,0.00,WeatherDisplay:10.37,2013-09-09 10:35:00,
2013-09-09 06:40:00,44.2,43.4,30.11,South,190,0.0,0.0,97,0.00,BKN,,0.00,WeatherDisplay:10.37,2013-09-09 10:40:00,
2013-09-09 06:45:00,44.2,43.4,30.11,South,190,0.0,0.0,97,0.00,BKN,,0.00,WeatherDisplay:10.37,2013-09-09 10:45:00,
2013-09-09 06:50:00,44.2,43.4,30.11,South,190,0.0,0.0,97,0.00,BKN,,0.00,WeatherDisplay:10.37,2013-09-09 10:50:00,
2013-09-09 06:56:00,44.2,43.4,30.11,South,190,0.0,0.0,97,0.00,BKN,,0.00,WeatherDisplay:10.37,2013-09-09 10:56:00,
2013-09-09 07:01:00,44.4,43.6,30.11,South,190,0.0,0.0,97,0.00,BKN,,0.00,WeatherDisplay:10.37,2013-09-09 11:01:00,
2013-09-09 07:06:00,44.5,43.7,30.11,South,190,0.0,0.0,97,0.00,BKN,,0.00,WeatherDisplay:10.37,2013-09-09 11:06:00,
2013-09-09 07:11:00,44.7,43.9,30.11,South,190,0.0,0.0,97,0.00,BKN,,0.00,WeatherDisplay:10.37,2013-09-09 11:11:00,
2013-09-09 07:16:00,44.7,43.9,30.11,South,190,0.0,0.0,97,0.00,BKN,,0.00,WeatherDisplay:10.37,2013-09-09 11:16:00,
2013-09-09 07:21:00,44.8,44.0,30.11,South,190,0.0,0.0,97,0.00,BKN,,0.00,WeatherDisplay:10.37,2013-09-09 11:21:00,
2013-09-09 07:26:00,44.9,44.1,30.11,South,190,0.0,0.0,97,0.00,BKN,,0.00,WeatherDisplay:10.37,2013-09-09 11:26:00,
2013-09-09 07:31:00,45.0,44.2,30.11,South,190,0.0,0.0,97,0.00,BKN,,0.00,WeatherDisplay:10.37,2013-09-09 11:31:00,
2013-09-09 07:36:00,45.2,44.4,30.10,South,190,0.0,0.0,97,0.00,BKN,,0.00,WeatherDisplay:10.37,2013-09-09 11:36:00,
2013-09-09 07:41:00,45.3,44.5,30.10,South,190,0.0,0.0,97,0.00,BKN,,0.00,WeatherDisplay:10.37,2013-09-09 11:41:00,
2013-09-09 07:46:00,45.6,44.8,30.10,South,190,0.0,0.0,97,0.00,BKN,,0.00,WeatherDisplay:10.37,2013-09-09 11:46:00,
2013-09-09 07:51:00,45.8,45.0,30.10,South,190,0.0,0.0,97,0.00,BKN,,0.00,WeatherDisplay:10.37,2013-09-09 11:51:00,
2013-09-09 07:56:00,46.0,45.2,30.10,South,190,0.0,0.0,97,0.00,BKN,,0.00,WeatherDisplay:10.37,2013-09-09 11:56:00,
2013-09-09 08:01:00,46.3,45.5,30.10,South,190,0.0,0.0,97,0.00,BKN,,0.00,WeatherDisplay:10.37,2013-09-09 12:01:00,
2013-09-09 08:06:00,46.5,45.7,30.10,South,191,0.0,0.0,97,0.00,BKN,,0.00,WeatherDisplay:10.37,2013-09-09 12:06:00,
2013-09-09 08:11:00,46.8,46.3,30.10,South,191,0.0,0.0,98,0.00,BKN,,0.00,WeatherDisplay:10.37,2013-09-09 12:11:00,
2013-09-09 08:16:00,47.1,46.6,30.10,South,191,0.0,0.0,98,0.00,BKN,,0.00,WeatherDisplay:10.37,2013-09-09 12:16:00,
2013-09-09 08:21:00,47.3,46.8,30.10,SSW,192,0.0,0.0,98,0.00,BKN,,0.00,WeatherDisplay:10.37,2013-09-09 12:21:00,
2013-09-09 08:26:00,47.6,47.1,30.10,SSE,160,0.5,1.2,98,0.00,BKN,,0.00,WeatherDisplay:10.37,2013-09-09 12:26:00,
2013-09-09 08:31:00,48.0,47.5,30.10,SSE,160,0.0,0.0,98,0.00,BKN,,0.00,WeatherDisplay:10.37,2013-09-09 12:31:00,
2013-09-09 08:36:00,48.4,47.9,30.10,SSE,160,0.0,0.0,98,0.00,BKN,,0.00,WeatherDisplay:10.37,2013-09-09 12:36:00,
2013-09-09 08:41:00,48.6,48.1,30.10,SSW,194,1.1,2.3,98,0.00,BKN,,0.00,WeatherDisplay:10.37,2013-09-09 12:41:00,
2013-09-09 08:46:00,48.8,48.3,30.10,SSW,198,0.2,1.0,98,0.00,BKN,,0.00,WeatherDisplay:10.37,2013-09-09 12:46:00,
2013-09-09 08:51:00,49.2,48.7,30.10,SSW,207,1.0,2.3,98,0.00,BKN,,0.00,WeatherDisplay:10.37,2013-09-09 12:51:00,
2013-09-09 08:56:00,49.5,49.0,30.10,SSE,162,0.6,3.5,98,0.00,BKN,,0.00,WeatherDisplay:10.37,2013-09-09 12:56:00,
2013-09-09 09:01:00,49.6,49.1,30.10,SSE,156,1.7,3.5,98,0.00,BKN,,0.00,WeatherDisplay:10.37,2013-09-09 13:01:00,
2013-09-09 09:06:00,49.7,48.9,30.10,SSE,167,1.8,3.5,97,0.00,BKN,,0.00,WeatherDisplay:10.37,2013-09-09 13:06:00,
2013-09-09 09:12:00,50.0,49.2,30.10,SE,129,2.1,3.5,97,0.00,BKN,,0.00,WeatherDisplay:10.37,2013-09-09 13:12:00,
2013-09-09 09:17:00,50.3,49.5,30.10,South,183,2.4,3.5,97,0.00,BKN,,0.00,WeatherDisplay:10.37,2013-09-09 13:17:00,
2013-09-09 09:22:00,50.9,50.1,30.09,SSW,195,0.9,2.3,97,0.00,BKN,,0.00,WeatherDisplay:10.37,2013-09-09 13:22:00,
2013-09-09 09:27:00,51.4,50.3,30.09,South,181,1.6,3.5,96,0.00,BKN,,0.00,WeatherDisplay:10.37,2013-09-09 13:27:00,
2013-09-09 09:33:00,51.8,50.4,30.09,SE,146,1.3,3.0,95,0.00,BKN,,0.00,WeatherDisplay:10.37,2013-09-09 13:33:00,
2013-09-09 09:38:00,52.3,50.3,30.09,SSW,203,2.2,3.5,93,0.00,BKN,,0.00,WeatherDisplay:10.37,2013-09-09 13:38:00,
2013-09-09 09:43:00,52.7,50.4,30.09,SSE,149,2.3,3.5,92,0.00,BKN,,0.00,WeatherDisplay:10.37,2013-09-09 13:43:00,
2013-09-09 09:48:00,53.1,50.2,30.09,SSE,158,2.1,5.8,90,0.00,BKN,,0.00,WeatherDisplay:10.37,2013-09-09 13:48:00,
2013-09-09 09:53:00,53.5,50.3,30.09,SSW,203,1.3,3.5,89,0.00,BKN,,0.00,WeatherDisplay:10.37,2013-09-09 13:53:00,
2013-09-09 09:58:00,53.9,50.1,30.09,South,191,1.3,3.5,87,0.00,BKN,,0.00,WeatherDisplay:10.37,2013-09-09 13:58:00,
2013-09-09 10:03:00,54.6,50.5,30.09,South,188,1.3,4.0,86,0.00,BKN,,0.00,WeatherDisplay:10.37,2013-09-09 14:03:00,
2013-09-09 10:08:00,55.1,50.7,30.09,SSE,148,3.4,5.0,85,0.00,BKN,,0.00,WeatherDisplay:10.37,2013-09-09 14:08:00,
2013-09-09 10:13:00,55.6,51.2,30.09,SSW,194,0.2,1.2,85,0.00,BKN,,0.00,WeatherDisplay:10.37,2013-09-09 14:13:00,
2013-09-09 10:18:00,56.0,50.9,30.09,SSE,160,3.7,6.9,83,0.00,BKN,,0.00,WeatherDisplay:10.37,2013-09-09 14:18:00,
2013-09-09 10:23:00,56.1,51.0,30.08,South,172,2.5,3.5,83,0.00,BKN,,0.00,WeatherDisplay:10.37,2013-09-09 14:23:00,
2013-09-09 10:28:00,56.4,51.6,30.08,SE,137,1.1,2.3,84,0.00,BKN,,0.00,WeatherDisplay:10.37,2013-09-09 14:28:00,
2013-09-09 10:33:00,57.1,52.3,30.08,SSW,205,2.5,3.5,84,0.00,BKN,,0.00,WeatherDisplay:10.37,2013-09-09 14:33:00,
2013-09-09 10:38:00,57.7,52.2,30.08,SW,214,2.0,3.5,82,0.00,BKN,,0.00,WeatherDisplay:10.37,2013-09-09 14:38:00,
2013-09-09 10:43:00,58.4,52.6,30.07,South,169,1.1,3.5,81,0.00,BKN,,0.00,WeatherDisplay:10.37,2013-09-09 14:43:00,
2013-09-09 10:48:00,59.3,53.5,30.07,SW,220,1.8,3.5,81,0.00,BKN,,0.00,WeatherDisplay:10.37,2013-09-09 14:48:00,
2013-09-09 10:53:00,60.4,54.2,30.07,South,170,1.5,3.5,80,0.00,BKN,,0.00,WeatherDisplay:10.37,2013-09-09 14:53:00,
2013-09-09 10:58:00,61.4,53.4,30.07,SSW,210,4.5,6.9,75,0.00,BKN,,0.00,WeatherDisplay:10.37,2013-09-09 14:58:00,
2013-09-09 11:03:00,62.0,54.0,30.08,SSW,198,1.9,3.5,75,0.00,BKN,,0.00,WeatherDisplay:10.37,2013-09-09 15:03:00,
2013-09-09 11:08:00,62.9,54.1,30.07,SW,225,2.1,3.5,73,0.00,BKN,,0.00,WeatherDisplay:10.37,2013-09-09 15:08:00,
2013-09-09 11:13:00,63.6,55.2,30.07,SSE,159,2.3,4.0,74,0.00,BKN,,0.00,WeatherDisplay:10.37,2013-09-09 15:13:00,
2013-09-09 11:18:00,64.1,54.1,30.07,West,277,4.5,5.8,70,0.00,BKN,,0.00,WeatherDisplay:10.37,2013-09-09 15:18:00,
2013-09-09 11:23:00,64.6,54.2,30.06,SW,222,2.8,4.0,69,0.00,BKN,,0.00,WeatherDisplay:10.37,2013-09-09 15:23:00,
2013-09-09 11:28:00,65.2,54.4,30.06,SSE,167,2.1,3.5,68,0.00,BKN,,0.00,WeatherDisplay:10.37,2013-09-09 15:28:00,
2013-09-09 11:33:00,66.2,54.9,30.07,West,280,4.0,5.8,67,0.00,BKN,,0.00,WeatherDisplay:10.37,2013-09-09 15:33:00,
2013-09-09 11:38:00,66.8,55.1,30.06,WSW,250,2.4,4.6,66,0.00,BKN,,0.00,WeatherDisplay:10.37,2013-09-09 15:38:00,
2013-09-09 11:43:00,66.9,56.4,30.07,SW,224,2.5,8.1,69,0.00,BKN,,0.00,WeatherDisplay:10.37,2013-09-09 15:43:00,
2013-09-09 11:48:00,67.1,55.4,30.06,WSW,257,1.8,3.5,66,0.00,BKN,,0.00,WeatherDisplay:10.37,2013-09-09 15:48:00,
2013-09-09 11:53:00,67.6,55.8,30.06,SSW,195,0.5,2.3,66,0.00,BKN,,0.00,WeatherDisplay:10.37,2013-09-09 15:53:00,
2013-09-09 11:58:00,68.1,55.5,30.06,WNW,294,2.3,3.5,64,0.00,BKN,,0.00,WeatherDisplay:10.37,2013-09-09 15:58:00,
2013-09-09 12:03:00,67.7,55.5,30.06,NW,305,1.5,3.5,65,0.00,BKN,,0.00,WeatherDisplay:10.37,2013-09-09 16:03:00,
2013-09-09 12:08:00,67.5,55.7,30.06,WSW,249,3.4,4.0,66,0.00,BKN,,0.00,WeatherDisplay:10.37,2013-09-09 16:08:00,
2013-09-09 12:13:00,67.6,55.8,30.06,West,266,2.5,3.5,66,0.00,BKN,,0.00,WeatherDisplay:10.37,2013-09-09 16:13:00,
2013-09-09 12:18:00,68.1,56.3,30.06,WSW,245,0.1,1.2,66,0.00,BKN,,0.00,WeatherDisplay:10.37,2013-09-09 16:18:00,
2013-09-09 12:23:00,68.5,56.3,30.06,WNW,283,2.4,3.5,65,0.00,BKN,,0.00,WeatherDisplay:10.37,2013-09-09 16:23:00,
2013-09-09 12:28:00,68.8,56.1,30.06,WSW,243,2.7,4.0,64,0.00,BKN,,0.00,WeatherDisplay:10.37,2013-09-09 16:28:00,
2013-09-09 12:33:00,69.0,56.7,30.06,West,273,2.5,4.6,65,0.00,BKN,,0.00,WeatherDisplay:10.37,2013-09-09 16:33:00,
2013-09-09 12:38:00,69.3,57.9,30.06,WSW,252,1.3,3.5,67,0.00,BKN,,0.00,WeatherDisplay:10.37,2013-09-09 16:38:00,
2013-09-09 12:43:00,69.7,57.0,30.05,WSW,253,2.2,2.2,64,0.00,BKN,,0.00,WeatherDisplay:10.37,2013-09-09 16:43:00,
2013-09-09 12:49:00,70.7,57.0,30.05,SW,221,1.5,2.3,62,0.00,BKN,,0.00,WeatherDisplay:10.37,2013-09-09 16:49:00,
2013-09-09 12:54:00,70.8,56.7,30.05,West,270,1.3,2.3,61,0.00,BKN,,0.00,WeatherDisplay:10.37,2013-09-09 16:54:00,
2013-09-09 12:59:00,70.7,57.5,30.05,SW,214,2.8,5.8,63,0.00,BKN,,0.00,WeatherDisplay:10.37,2013-09-09 16:59:00,
2013-09-09 13:04:00,71.1,58.3,30.05,SW,225,2.0,2.3,64,0.00,BKN,,0.00,WeatherDisplay:10.37,2013-09-09 17:04:00,
2013-09-09 13:09:00,71.9,59.1,30.05,South,191,1.0,4.6,64,0.00,BKN,,0.00,WeatherDisplay:10.37,2013-09-09 17:09:00,
2013-09-09 13:14:00,71.8,57.6,30.05,WNW,294,2.9,4.6,61,0.00,BKN,,0.00,WeatherDisplay:10.37,2013-09-09 17:14:00,
2013-09-09 13:19:00,71.7,57.5,30.05,SSW,210,1.9,3.5,61,0.00,BKN,,0.00,WeatherDisplay:10.37,2013-09-09 17:19:00,
2013-09-09 13:24:00,71.5,58.2,30.05,WNW,287,2.0,4.0,63,0.00,BKN,,0.00,WeatherDisplay:10.37,2013-09-09 17:24:00,
2013-09-09 13:29:00,71.7,58.0,30.05,NE,39,1.4,3.5,62,0.00,BKN,,0.00,WeatherDisplay:10.37,2013-09-09 17:29:00,
2013-09-09 13:34:00,71.5,57.8,30.05,NNE,25,0.4,1.2,62,0.00,BKN,,0.00,WeatherDisplay:10.37,2013-09-09 17:34:00,
2013-09-09 13:39:00,72.9,60.0,30.04,West,262,1.8,3.0,64,0.00,BKN,,0.00,WeatherDisplay:10.37,2013-09-09 17:39:00,
2013-09-09 13:44:00,73.6,58.4,30.05,South,188,2.0,4.6,59,0.00,BKN,,0.00,WeatherDisplay:10.37,2013-09-09 17:44:00,
2013-09-09 13:49:00,74.4,60.1,30.04,WSW,243,2.7,4.6,61,0.00,BKN,,0.00,WeatherDisplay:10.37,2013-09-09 17:49:00,
2013-09-09 13:54:00,73.5,57.3,30.04,West,264,4.9,5.8,57,0.00,BKN,,0.00,WeatherDisplay:10.37,2013-09-09 17:54:00,
2013-09-09 13:59:00,72.8,59.0,30.04,SW,225,2.9,3.5,62,0.00,BKN,,0.00,WeatherDisplay:10.37,2013-09-09 17:59:00,
2013-09-09 14:04:00,72.9,59.6,30.04,SW,235,0.0,1.2,63,0.00,BKN,,0.00,WeatherDisplay:10.37,2013-09-09 18:04:00,
2013-09-09 14:09:00,73.2,58.5,30.04,SSW,211,2.0,3.5,60,0.00,BKN,,0.00,WeatherDisplay:10.37,2013-09-09 18:09:00,
2013-09-09 14:14:00,73.1,58.4,30.04,SW,222,1.7,3.5,60,0.00,BKN,,0.00,WeatherDisplay:10.37,2013-09-09 18:14:00,
2013-09-09 14:19:00,72.8,58.6,30.04,SSE,166,1.2,3.5,61,0.00,BKN,,0.00,WeatherDisplay:10.37,2013-09-09 18:19:00,
2013-09-09 14:24:00,73.1,58.8,30.03,SSE,160,1.0,3.5,61,0.00,BKN,,0.00,WeatherDisplay:10.37,2013-09-09 18:24:00,
2013-09-09 14:29:00,74.2,60.8,30.03,East,92,1.3,2.3,63,0.00,BKN,,0.00,WeatherDisplay:10.37,2013-09-09 18:29:00,
2013-09-09 14:35:00,74.8,60.0,30.03,SW,235,1.8,3.5,60,0.00,BKN,,0.00,WeatherDisplay:10.37,2013-09-09 18:35:00,
2013-09-09 14:40:00,74.4,59.1,30.02,SW,219,1.8,3.5,59,0.00,BKN,,0.00,WeatherDisplay:10.37,2013-09-09 18:40:00,
2013-09-09 14:45:00,73.7,58.5,30.03,WSW,254,1.8,2.3,59,0.00,BKN,,0.00,WeatherDisplay:10.37,2013-09-09 18:45:00,
2013-09-09 14:51:00,73.4,59.1,30.02,SSW,194,1.6,2.3,61,0.00,BKN,,0.00,WeatherDisplay:10.37,2013-09-09 18:51:00,
2013-09-09 14:56:00,73.3,59.5,30.02,SSW,197,0.9,2.0,62,0.00,BKN,,0.00,WeatherDisplay:10.37,2013-09-09 18:56:00,
2013-09-09 15:01:00,73.0,59.2,30.02,SW,223,0.0,1.2,62,0.00,BKN,,0.00,WeatherDisplay:10.37,2013-09-09 19:01:00,
2013-09-09 15:06:00,72.9,59.6,30.02,SW,218,0.4,1.2,63,0.00,BKN,,0.00,WeatherDisplay:10.37,2013-09-09 19:06:00,
2013-09-09 15:11:00,72.9,60.0,30.01,SE,134,0.3,1.0,64,0.00,BKN,,0.00,WeatherDisplay:10.37,2013-09-09 19:11:00,
2013-09-09 15:16:00,72.9,60.0,30.01,SSE,158,0.0,0.0,64,0.00,BKN,,0.00,WeatherDisplay:10.37,2013-09-09 19:16:00,
2013-09-09 15:21:00,72.9,60.0,30.01,South,188,0.9,3.5,64,0.00,BKN,,0.00,WeatherDisplay:10.37,2013-09-09 19:21:00,
2013-09-09 15:26:00,72.9,59.6,30.01,SW,222,1.7,3.5,63,0.00,BKN,,0.00,WeatherDisplay:10.37,2013-09-09 19:26:00,
2013-09-09 15:31:00,72.8,59.9,30.01,SW,236,1.8,3.5,64,0.00,BKN,,0.00,WeatherDisplay:10.37,2013-09-09 19:31:00,
2013-09-09 15:36:00,72.8,60.8,30.00,West,259,0.9,2.0,66,0.00,BKN,,0.00,WeatherDisplay:10.37,2013-09-09 19:36:00,
2013-09-09 15:41:00,72.7,59.8,30.00,WSW,239,2.7,3.5,64,0.00,BKN,,0.00,WeatherDisplay:10.37,2013-09-09 19:41:00,
2013-09-09 15:46:00,72.9,60.4,30.00,SSW,204,0.7,3.5,65,0.00,BKN,,0.00,WeatherDisplay:10.37,2013-09-09 19:46:00,
2013-09-09 15:51:00,73.2,60.3,30.00,WSW,242,1.0,2.3,64,0.00,BKN,,0.00,WeatherDisplay:10.37,2013-09-09 19:51:00,
2013-09-09 15:56:00,73.2,59.8,30.00,South,186,1.3,3.5,63,0.00,BKN,,0.00,WeatherDisplay:10.37,2013-09-09 19:56:00,
2013-09-09 16:01:00,73.1,60.2,30.00,WSW,252,2.5,3.5,64,0.00,BKN,,0.00,WeatherDisplay:10.37,2013-09-09 20:01:00,
2013-09-09 16:06:00,73.0,60.1,30.00,WNW,283,2.3,3.5,64,0.00,BKN,,0.00,WeatherDisplay:10.37,2013-09-09 20:06:00,
2013-09-09 16:11:00,72.9,60.9,30.00,WSW,255,1.1,3.5,66,0.00,BKN,,0.00,WeatherDisplay:10.37,2013-09-09 20:11:00,
2013-09-09 16:16:00,72.7,61.1,30.00,SW,226,0.9,2.3,67,0.00,BKN,,0.00,WeatherDisplay:10.37,2013-09-09 20:16:00,
2013-09-09 16:21:00,72.7,60.7,30.00,West,262,1.4,2.3,66,0.00,BKN,,0.00,WeatherDisplay:10.37,2013-09-09 20:21:00,
2013-09-09 16:26:00,72.8,61.2,30.00,West,276,0.7,1.2,67,0.00,BKN,,0.00,WeatherDisplay:10.37,2013-09-09 20:26:00,
2013-09-09 16:31:00,72.7,60.7,30.00,WSW,240,1.7,2.3,66,0.00,BKN,,0.00,WeatherDisplay:10.37,2013-09-09 20:31:00,
2013-09-09 16:36:00,72.4,59.5,29.99,West,263,1.2,2.3,64,0.00,BKN,,0.00,WeatherDisplay:10.37,2013-09-09 20:36:00,
2013-09-09 16:41:00,72.1,60.1,29.99,WSW,243,1.0,2.3,66,0.00,BKN,,0.00,WeatherDisplay:10.37,2013-09-09 20:41:00,
2013-09-09 16:47:00,72.0,61.3,29.99,SW,232,0.2,1.2,69,0.00,BKN,,0.00,WeatherDisplay:10.37,2013-09-09 20:47:00,
2013-09-09 16:52:00,72.1,61.0,29.98,SW,232,0.1,1.2,68,0.00,BKN,,0.00,WeatherDisplay:10.37,2013-09-09 20:52:00,
2013-09-09 16:57:00,72.2,60.2,29.98,SW,233,0.0,0.0,66,0.00,BKN,,0.00,WeatherDisplay:10.37,2013-09-09 20:57:00,
2013-09-09 17:02:00,72.3,60.3,29.98,SW,221,0.0,1.0,66,0.00,BKN,,0.00,WeatherDisplay:10.37,2013-09-09 21:02:00,
2013-09-09 17:07:00,72.3,60.3,29.98,WSW,253,0.0,0.0,66,0.00,BKN,,0.00,WeatherDisplay:10.37,2013-09-09 21:07:00,
2013-09-09 17:12:00,72.2,59.8,29.98,WSW,256,1.2,2.3,65,0.00,BKN,,0.00,WeatherDisplay:10.37,2013-09-09 21:12:00,
2013-09-09 17:17:00,72.0,60.4,29.98,West,266,0.0,0.0,67,0.00,BKN,,0.00,WeatherDisplay:10.37,2013-09-09 21:17:00,
2013-09-09 17:22:00,72.2,61.0,29.98,West,266,0.0,0.0,68,0.00,BKN,,0.00,WeatherDisplay:10.37,2013-09-09 21:22:00,
2013-09-09 17:27:00,72.4,61.2,29.98,West,266,0.0,0.0,68,0.00,BKN,,0.00,WeatherDisplay:10.37,2013-09-09 21:27:00,
2013-09-09 17:32:00,71.8,61.9,29.98,NNW,345,0.0,1.2,71,0.00,BKN,,0.00,WeatherDisplay:10.37,2013-09-09 21:32:00,
2013-09-09 17:37:00,70.7,61.6,29.98,NNE,32,1.0,2.3,73,0.00,BKN,,0.00,WeatherDisplay:10.37,2013-09-09 21:37:00,
2013-09-09 17:43:00,69.8,61.9,29.98,NNE,32,0.4,1.2,76,0.00,BKN,,0.00,WeatherDisplay:10.37,2013-09-09 21:43:00,
2013-09-09 17:48:00,69.4,62.2,29.98,NE,36,0.3,1.0,78,0.00,BKN,,0.00,WeatherDisplay:10.37,2013-09-09 21:48:00,
2013-09-09 17:53:00,68.9,61.8,29.98,NE,47,0.5,1.2,78,0.00,BKN,,0.00,WeatherDisplay:10.37,2013-09-09 21:53:00,
2013-09-09 17:59:00,68.6,61.8,29.98,NE,47,0.3,1.2,79,0.00,BKN,,0.00,WeatherDisplay:10.37,2013-09-09 21:59:00,
2013-09-09 18:04:00,68.5,62.1,29.98,NE,46,0.0,0.0,80,0.00,BKN,,0.00,WeatherDisplay:10.37,2013-09-09 22:04:00,
2013-09-09 18:09:00,68.3,61.9,29.98,NE,46,0.0,0.0,80,0.00,BKN,,0.00,WeatherDisplay:10.37,2013-09-09 22:09:00,
2013-09-09 18:14:00,68.2,62.1,29.98,NE,47,0.0,0.0,81,0.00,BKN,,0.00,WeatherDisplay:10.37,2013-09-09 22:14:00,
2013-09-09 18:19:00,68.1,62.0,29.98,NE,46,0.0,0.0,81,0.00,BKN,,0.00,WeatherDisplay:10.37,2013-09-09 22:19:00,
2013-09-09 18:24:00,68.3,62.2,29.98,NE,47,0.0,0.0,81,0.00,BKN,,0.00,WeatherDisplay:10.37,2013-09-09 22:24:00,
2013-09-09 18:29:00,68.4,62.0,29.97,NE,53,0.0,0.0,80,0.00,BKN,,0.00,WeatherDisplay:10.37,2013-09-09 22:29:00,
2013-09-09 18:34:00,68.7,62.3,29.97,NE,53,0.0,0.0,80,0.00,BKN,,0.00,WeatherDisplay:10.37,2013-09-09 22:34:00,
2013-09-09 18:39:00,69.0,62.2,29.97,NE,53,0.0,0.0,79,0.00,BKN,,0.00,WeatherDisplay:10.37,2013-09-09 22:39:00,
2013-09-09 18:44:00,68.9,62.1,29.97,NE,53,0.0,0.0,79,0.00,BKN,,0.00,WeatherDisplay:10.37,2013-09-09 22:44:00,
2013-09-09 18:49:00,68.8,62.0,29.97,NE,53,0.0,0.0,79,0.00,BKN,,0.00,WeatherDisplay:10.37,2013-09-09 22:49:00,
2013-09-09 18:54:00,68.6,61.8,29.97,NE,53,0.0,0.0,79,0.00,BKN,,0.00,WeatherDisplay:10.37,2013-09-09 22:54:00,
2013-09-09 18:59:00,68.7,62.3,29.97,NE,53,0.0,0.0,80,0.00,BKN,,0.00,WeatherDisplay:10.37,2013-09-09 22:59:00,
2013-09-09 19:04:00,68.9,62.8,29.96,NE,53,0.0,0.0,81,0.00,BKN,,0.00,WeatherDisplay:10.37,2013-09-09 23:04:00,
2013-09-09 19:09:00,69.0,62.6,29.96,NE,53,0.0,0.0,80,0.00,BKN,,0.00,WeatherDisplay:10.37,2013-09-09 23:09:00,
2013-09-09 19:14:00,68.5,62.4,29.96,NE,53,0.0,0.0,81,0.00,BKN,,0.00,WeatherDisplay:10.37,2013-09-09 23:14:00,
2013-09-09 19:19:00,67.8,61.8,29.96,NE,53,0.0,0.0,81,0.00,BKN,,0.00,WeatherDisplay:10.37,2013-09-09 23:19:00,
2013-09-09 19:24:00,67.3,61.6,29.96,NE,52,0.0,0.0,82,0.00,BKN,,0.00,WeatherDisplay:10.37,2013-09-09 23:24:00,
2013-09-09 19:29:00,67.0,61.7,29.97,NE,53,0.0,0.0,83,0.00,BKN,,0.00,WeatherDisplay:10.37,2013-09-09 23:29:00,
2013-09-09 19:34:00,66.7,61.4,29.97,NE,53,0.0,0.0,83,0.00,BKN,,0.00,WeatherDisplay:10.37,2013-09-09 23:34:00,
2013-09-09 19:40:00,66.4,61.1,29.97,NE,51,0.0,0.0,83,0.00,BKN,,0.00,WeatherDisplay:10.37,2013-09-09 23:40:00,
2013-09-09 19:45:00,66.2,61.2,29.96,NE,53,0.0,0.0,84,0.00,BKN,,0.00,WeatherDisplay:10.37,2013-09-09 23:45:00,
2013-09-09 19:51:00,66.0,61.0,29.96,NE,53,0.0,0.0,84,0.00,BKN,,0.00,WeatherDisplay:10.37,2013-09-09 23:51:00,
2013-09-09 19:56:00,65.8,61.2,29.96,NE,52,0.0,0.0,85,0.00,BKN,,0.00,WeatherDisplay:10.37,2013-09-09 23:56:00,
2013-09-09 20:01:00,65.7,61.4,29.96,NE,51,0.0,0.0,86,0.00,OVC,,0.00,WeatherDisplay:10.37,2013-09-10 00:01:00,
2013-09-09 20:07:00,65.4,61.4,29.96,NE,53,0.0,0.0,87,0.00,OVC,,0.00,WeatherDisplay:10.37,2013-09-10 00:07:00,
2013-09-09 20:12:00,65.1,61.1,29.96,NE,51,0.0,0.0,87,0.00,OVC,,0.00,WeatherDisplay:10.37,2013-09-10 00:12:00,
2013-09-09 20:18:00,65.0,61.4,29.95,NE,51,0.0,0.0,88,0.00,OVC,,0.00,WeatherDisplay:10.37,2013-09-10 00:18:00,
2013-09-09 20:23:00,64.9,61.3,29.95,NE,51,0.0,0.0,88,0.00,OVC,,0.00,WeatherDisplay:10.37,2013-09-10 00:23:00,
2013-09-09 20:28:00,64.7,61.4,29.95,NE,51,0.0,0.0,89,0.00,OVC,,0.00,WeatherDisplay:10.37,2013-09-10 00:28:00,
2013-09-09 20:33:00,64.4,61.1,29.95,NE,51,0.0,0.0,89,0.00,OVC,,0.00,WeatherDisplay:10.37,2013-09-10 00:33:00,
2013-09-09 20:38:00,64.1,60.8,29.96,NE,51,0.0,0.0,89,0.00,OVC,,0.00,WeatherDisplay:10.37,2013-09-10 00:38:00,
2013-09-09 20:43:00,63.9,60.9,29.96,NE,51,0.0,0.0,90,0.00,OVC,,0.00,WeatherDisplay:10.37,2013-09-10 00:43:00,
2013-09-09 20:48:00,63.8,60.8,29.96,NE,51,0.0,0.0,90,0.00,OVC,,0.00,WeatherDisplay:10.37,2013-09-10 00:48:00,
2013-09-09 20:53:00,63.8,60.8,29.96,NE,53,0.0,0.0,90,0.00,OVC,,0.00,WeatherDisplay:10.37,2013-09-10 00:53:00,
2013-09-09 20:58:00,63.8,61.1,29.96,NE,51,0.0,0.0,91,0.00,OVC,,0.00,WeatherDisplay:10.37,2013-09-10 00:58:00,
2013-09-09 21:03:00,63.9,61.2,29.96,NE,51,0.0,0.0,91,0.00,FEW,,0.00,WeatherDisplay:10.37,2013-09-10 01:03:00,
2013-09-09 21:08:00,63.9,61.2,29.96,NE,51,0.0,0.0,91,0.00,FEW,,0.00,WeatherDisplay:10.37,2013-09-10 01:08:00,
2013-09-09 21:13:00,64.0,61.3,29.97,NE,51,0.0,0.0,91,0.00,FEW,,0.00,WeatherDisplay:10.37,2013-09-10 01:13:00,
2013-09-09 21:18:00,64.0,61.3,29.97,NE,51,0.0,0.0,91,0.00,FEW,,0.00,WeatherDisplay:10.37,2013-09-10 01:18:00,
2013-09-09 21:23:00,64.0,61.3,29.96,NE,51,0.0,0.0,91,0.00,FEW,,0.00,WeatherDisplay:10.37,2013-09-10 01:23:00,
2013-09-09 21:28:00,63.9,61.2,29.96,South,180,0.6,1.2,91,0.00,FEW,,0.00,WeatherDisplay:10.37,2013-09-10 01:28:00,
2013-09-09 21:33:00,64.0,61.6,29.96,SSE,158,1.4,2.3,92,0.00,FEW,,0.00,WeatherDisplay:10.37,2013-09-10 01:33:00,
2013-09-09 21:38:00,64.4,61.7,29.95,SSE,159,1.5,3.5,91,0.00,FEW,,0.00,WeatherDisplay:10.37,2013-09-10 01:38:00,
2013-09-09 21:44:00,64.7,62.0,29.96,SSW,201,1.0,2.3,91,0.00,FEW,,0.00,WeatherDisplay:10.37,2013-09-10 01:44:00,
2013-09-09 21:49:00,65.0,62.0,29.96,South,190,1.9,3.5,90,0.00,FEW,,0.00,WeatherDisplay:10.37,2013-09-10 01:49:00,
2013-09-09 21:54:00,65.2,61.9,29.96,SSW,195,2.1,2.3,89,0.00,FEW,,0.00,WeatherDisplay:10.37,2013-09-10 01:54:00,
2013-09-09 21:59:00,65.4,62.1,29.95,South,191,2.0,3.5,89,0.00,FEW,,0.00,WeatherDisplay:10.37,2013-09-10 01:59:00,
2013-09-09 22:04:00,65.6,61.9,29.95,South,170,1.4,2.3,88,0.00,FEW,,0.00,WeatherDisplay:10.37,2013-09-10 02:04:00,
2013-09-09 22:09:00,65.6,61.9,29.95,South,176,2.0,4.0,88,0.00,FEW,,0.00,WeatherDisplay:10.37,2013-09-10 02:09:00,
2013-09-09 22:14:00,65.7,62.0,29.94,SSW,208,2.5,5.0,88,0.00,FEW,,0.00,WeatherDisplay:10.37,2013-09-10 02:14:00,
2013-09-09 22:19:00,65.8,62.1,29.94,SSE,162,2.7,4.0,88,0.00,FEW,,0.00,WeatherDisplay:10.37,2013-09-10 02:19:00,
2013-09-09 22:24:00,65.9,62.6,29.93,SSW,200,2.9,4.6,89,0.00,FEW,,0.00,WeatherDisplay:10.37,2013-09-10 02:24:00,
2013-09-09 22:29:00,65.9,62.6,29.93,South,177,2.4,4.6,89,0.00,FEW,,0.00,WeatherDisplay:10.37,2013-09-10 02:29:00,
2013-09-09 22:34:00,65.9,62.6,29.93,South,179,3.1,4.6,89,0.00,FEW,,0.00,WeatherDisplay:10.37,2013-09-10 02:34:00,
2013-09-09 22:39:00,66.0,63.0,29.93,SSW,204,3.4,5.0,90,0.00,FEW,,0.00,WeatherDisplay:10.37,2013-09-10 02:39:00,
2013-09-09 22:44:00,66.1,63.1,29.92,South,181,3.4,5.0,90,0.00,FEW,,0.00,WeatherDisplay:10.37,2013-09-10 02:44:00,
2013-09-09 22:49:00,66.3,63.3,29.91,SSW,193,3.9,6.9,90,0.00,FEW,,0.00,WeatherDisplay:10.37,2013-09-10 02:49:00,
2013-09-09 22:54:00,66.4,63.4,29.92,SSE,163,2.9,8.1,90,0.00,FEW,,0.00,WeatherDisplay:10.37,2013-09-10 02:54:00,
2013-09-09 23:00:00,66.7,63.7,29.92,South,176,3.6,9.2,90,0.00,FEW,,0.00,WeatherDisplay:10.37,2013-09-10 03:00:00,
2013-09-09 23:06:00,66.8,63.8,29.92,SSW,211,3.1,5.8,90,0.00,SCT,,0.00,WeatherDisplay:10.37,2013-09-10 03:06:00,
2013-09-09 23:11:00,66.9,63.9,29.92,South,174,4.9,9.2,90,0.00,SCT,,0.00,WeatherDisplay:10.37,2013-09-10 03:11:00,
2013-09-09 23:16:00,66.9,63.9,29.93,SSE,166,1.2,4.6,90,0.00,SCT,,0.00,WeatherDisplay:10.37,2013-09-10 03:16:00,
2013-09-09 23:22:00,66.9,63.9,29.93,SSW,210,1.8,3.5,90,0.00,SCT,,0.00,WeatherDisplay:10.37,2013-09-10 03:22:00,
2013-09-09 23:27:00,66.9,63.9,29.93,SSE,149,2.3,3.5,90,0.00,SCT,,0.00,WeatherDisplay:10.37,2013-09-10 03:27:00,
2013-09-09 23:32:00,66.9,64.2,29.93,South,172,3.5,5.8,91,0.00,SCT,,0.00,WeatherDisplay:10.37,2013-09-10 03:32:00,
2013-09-09 23:37:00,66.9,63.9,29.93,SE,141,2.9,5.0,90,0.00,SCT,,0.00,WeatherDisplay:10.37,2013-09-10 03:37:00,
2013-09-09 23:42:00,66.9,64.2,29.92,SSW,197,3.1,4.6,91,0.00,SCT,,0.00,WeatherDisplay:10.37,2013-09-10 03:42:00,
2013-09-09 23:47:00,66.9,64.2,29.93,South,169,3.7,5.0,91,0.00,SCT,,0.00,WeatherDisplay:10.37,2013-09-10 03:47:00,
2013-09-09 23:52:00,66.9,64.2,29.92,SE,124,4.2,4.6,91,0.00,SCT,,0.00,WeatherDisplay:10.37,2013-09-10 03:52:00,
2013-09-09 23:57:00,67.0,64.3,29.92,South,183,4.4,5.0,91,0.00,SCT,,0.00,WeatherDisplay:10.37,2013-09-10 03:57:00,